Weather History for Sault Ste Marie, MI

Change the Weather History Date:

Thursday, September 12, 2013

  Actual Average Record
Temperature  
Mean Temperature 55 °F 58 °F  
Max Temperature 64 °F 68 °F 91 °F (1931)
Min Temperature 46 °F 49 °F 32 °F (1943)
Degree Days  
Heating Degree Days 10 7  
Month to date heating degree days 62 69  
Since 1 July heating degree days 178 216  
Cooling Degree Days 0 1  
Month to date cooling degree days 12 12  
Year to date cooling degree days 264 190  
Growing Degree Days 6 (Base 50)    
Moisture  
Dew Point 52 °F    
Average Humidity 78    
Maximum Humidity 93    
Minimum Humidity 62    
Precipitation  
Precipitation T in 0.13 in 2.20 in (1984)
Month to date precipitation 5.71 1.46  
Year to date precipitation 34.00 20.63  
Sea Level Pressure  
Sea Level Pressure 29.93 in    
Wind  
Wind Speed 12 mph (NW)    
Max Wind Speed 22 mph    
Max Gust Speed 29 mph    
Visibility 10 miles    
Events Rain    
T = Trace of Precipitation, MM = Missing Value Source: NWS Daily Summary

Daily Weather History Graph

Daily Weather History Graph

Search for Another Location

Airport:

Trip Planner

Search our weather history database for the weather conditions in past years. The results will help you decide how hot, cold, wet, or windy it might be!

Date:

Astronomy

Sep. 12, 2013 Rise Set
Actual Time 7:11 AM EDT 7:54 PM EDT
Civil Twilight 6:41 AM EDT 8:24 PM EDT
Nautical Twilight 6:05 AM EDT 9:00 PM EDT
Astronomical Twilight 5:27 AM EDT 9:38 PM EDT
Moon 3:01 PM EDT (9/12) No Moon Set
Length of Visible Light 13h 43m
Length of Day
12h 42m
Waxing Crescent, 50% of the Moon is Illuminated
Sep 12
Waxing Crescent
Sep 12
First Quarter
Sep 19
Full
Sep 26
Last Quarter
Oct 4
New

Hourly Weather History & Observations

Time (EDT) Temp. Dew Point Humidity Pressure Visibility Wind Dir Wind Speed Gust Speed Precip Events Conditions
12:55 AM 62.1 °F 60.1 °F 93% 29.86 in 10.0 mi Calm Calm - N/A   Overcast
1:02 AM 62.1 °F 60.1 °F 93% 29.87 in 10.0 mi Calm Calm - N/A   Overcast
1:14 AM 63.0 °F 61.0 °F 93% 29.86 in 10.0 mi West 3.5 mph - N/A   Overcast
1:55 AM 63.0 °F 61.0 °F 93% 29.84 in 10.0 mi WNW 6.9 mph - N/A   Overcast
2:52 AM 62.6 °F 60.8 °F 94% 29.85 in 10.0 mi WNW 5.8 mph - N/A   Overcast
2:55 AM 63.0 °F 61.0 °F 93% 29.84 in 10.0 mi WNW 5.8 mph - N/A   Overcast
3:55 AM 62.1 °F 59.0 °F 90% 29.85 in 10.0 mi NW 13.8 mph 19.6 mph N/A   Overcast
4:41 AM 61.0 °F 57.9 °F 90% 29.86 in 10.0 mi WNW 11.5 mph - N/A   Overcast
4:53 AM 60.8 °F 57.2 °F 88% 29.86 in 10.0 mi WNW 12.7 mph - N/A   Overcast
4:55 AM 61.0 °F 57.9 °F 90% 29.85 in 10.0 mi WNW 11.5 mph - N/A   Overcast
5:27 AM 61.0 °F 57.0 °F 87% 29.86 in 10.0 mi WNW 8.1 mph - N/A   Overcast
5:55 AM 60.1 °F 57.0 °F 90% 29.86 in 10.0 mi NW 12.7 mph 17.3 mph N/A   Overcast
6:55 AM 60.1 °F 57.0 °F 90% 29.87 in 10.0 mi WNW 8.1 mph - N/A   Overcast
7:17 AM 59.0 °F 55.9 °F 90% 29.87 in 10.0 mi West 6.9 mph - N/A   Mostly Cloudy
7:29 AM 59.0 °F 57.0 °F 93% 29.87 in 10.0 mi WNW 9.2 mph - N/A   Scattered Clouds
7:39 AM 60.1 °F 57.0 °F 90% 29.88 in 10.0 mi WNW 8.1 mph - N/A   Mostly Cloudy
7:55 AM 60.1 °F 55.9 °F 86% 29.87 in 10.0 mi WNW 12.7 mph 19.6 mph N/A   Scattered Clouds
8:55 AM 60.1 °F 54.0 °F 80% 29.88 in 10.0 mi NW 11.5 mph 21.9 mph N/A   Scattered Clouds
9:55 AM 60.1 °F 53.1 °F 78% 29.90 in 10.0 mi WNW 12.7 mph 25.3 mph N/A   Mostly Cloudy
10:06 AM 60.1 °F 52.0 °F 75% 29.91 in 10.0 mi WNW 16.1 mph 24.2 mph N/A   Scattered Clouds
10:14 AM 61.0 °F 53.1 °F 75% 29.91 in 10.0 mi NW 10.4 mph 24.2 mph N/A   Mostly Cloudy
10:44 AM 61.0 °F 52.0 °F 72% 29.92 in 10.0 mi NW 16.1 mph 26.5 mph N/A   Scattered Clouds
10:55 AM 61.0 °F 51.1 °F 70% 29.91 in 10.0 mi NW 18.4 mph 25.3 mph N/A   Scattered Clouds
11:09 AM 61.0 °F 52.0 °F 72% 29.92 in 10.0 mi NW 16.1 mph 24.2 mph N/A   Mostly Cloudy
11:55 AM 60.1 °F 52.0 °F 75% 29.92 in 10.0 mi NW 15.0 mph 23.0 mph N/A   Overcast
12:55 PM 60.1 °F 51.1 °F 72% 29.94 in 10.0 mi NW 11.5 mph 17.3 mph 0.00 in   Overcast
1:55 PM 59.0 °F 48.0 °F 67% 29.95 in 10.0 mi NW 17.3 mph 25.3 mph N/A   Overcast
2:18 PM 59.0 °F 46.0 °F 62% 29.95 in 10.0 mi NNW 13.8 mph 26.5 mph N/A   Overcast
2:25 PM 59.0 °F 46.9 °F 64% 29.96 in 10.0 mi NNW 13.8 mph 27.6 mph N/A   Overcast
2:55 PM 60.1 °F 48.9 °F 67% 29.96 in 10.0 mi NW 18.4 mph 27.6 mph N/A   Overcast
3:55 PM 59.0 °F 46.9 °F 64% 29.96 in 10.0 mi NW 13.8 mph 25.3 mph N/A   Overcast
4:55 PM 59.0 °F 46.0 °F 62% 29.96 in 10.0 mi NW 18.4 mph 26.5 mph N/A   Partly Cloudy
5:55 PM 57.0 °F 45.0 °F 64% 29.97 in 10.0 mi NW 15.0 mph 26.5 mph N/A   Mostly Cloudy
6:55 PM 55.0 °F 45.0 °F 69% 29.99 in 10.0 mi NNW 11.5 mph 19.6 mph N/A   Overcast
7:22 PM 54.0 °F 46.0 °F 75% 30.00 in 8.0 mi North 15.0 mph 20.7 mph 0.00 in Rain Light Rain
7:30 PM 54.0 °F 44.1 °F 69% 30.00 in 10.0 mi North 12.7 mph 20.7 mph 0.00 in Rain Light Rain
7:55 PM 54.0 °F 44.1 °F 69% 30.01 in 10.0 mi North 9.2 mph - 0.00 in   Overcast
8:55 PM 52.0 °F 43.0 °F 71% 30.04 in 10.0 mi North 10.4 mph 21.9 mph N/A   Overcast
9:55 PM 50.0 °F 43.0 °F 77% 30.06 in 10.0 mi North 11.5 mph - N/A   Mostly Cloudy
10:06 PM 50.0 °F 42.1 °F 74% 30.05 in 10.0 mi North 6.9 mph - N/A   Mostly Cloudy
10:55 PM 48.9 °F 39.9 °F 71% 30.06 in 10.0 mi North 6.9 mph 19.6 mph N/A   Overcast
11:55 PM 48.0 °F 39.9 °F 74% 30.07 in 10.0 mi North 9.2 mph - N/A   Overcast